NOAA 17 DEB

Satellite information

Favourite Embed

Satellite Type and Status

DEBRISIN ORBIT

Key statistics

Satellite NOAA 17 DEB at a glance.

Uptime

8573

Days in orbit

Revolutions

≈ 14.5

Per day

Orbit

SSO

Sun Synchronous Orbit

Inclination

98.9

Latest

Satellite identification and parameters

Extended collection of information and parameters for NOAA 17 DEB.

Object identification

Identified? True

Debris? True

Object name: NOAA 17 DEB

International designator: 2002-032T

Object number (NORAD): 48178

Object ID (CCSDS): 48178

Country: UNITED STATES OF AMERICA (US)

Current information (Y/N): Y

RCS size: SMALL

Orbital parameters

Period: 99.251 minutes

Inclination: 98.8651 deg

SMA: 7100.979 km

Apoapsis: 729.909 km

Periapsis: 715.778 km

RAAN: 346.8603 deg

Eccentricy: 0.000995

Argument of periapsis: 93.2702 deg

Mean anomaly: 266.9629 deg

Mean motion: 14.50859766 rev/day

Mean motion (dot): 0.00012897 rev/day2

B* drag term: 0.0032751 1/REarth

Two-line elements (TLE)

Creation date: Dec. 12, 2025, 7:16 a.m.

Reference frame: TEME

Reference center: EARTH

Epoch: Dec. 11, 2025, 10:59 p.m. UTC

TLE line 0: 0 NOAA 17 DEB

TLE line 1: 1 48178U 02032T 25345.95765867 .00012897 00000-0 32751-2 0 9994

TLE line 2: 2 48178 98.8651 346.8603 0009950 93.2702 266.9629 14.50859766246815

Live tracking on map

Real-time ground track for satellite NOAA 17 DEB.

In-orbit conjunctions

A list of the most updated potential collisions computed for object NOAA 17 DEB.

Target Orbit TCA Probability of collision Miss distance Type
DELTA 1 DEB LEO 2025-06-26 20:59:58 0.0001085646 90.0 (m) DEBRIS
COSMOS 1238 LEO 2025-03-11 10:10:43 0.0001199137 740.0 (m) PAYLOAD
COSMOS 2251 DEB LEO 2024-09-27 10:28:56 0.0001148488 264.0 (m) DEBRIS
IRIDIUM 44 LEO 2024-08-08 02:11:36 0.0002016205 617.0 (m) PAYLOAD
COSMOS 1867 LEO 2024-07-11 00:01:33 0.0002415893 282.0 (m) PAYLOAD

Associated space launch

NOAA M carried weather imagers and microwave and infrared sounders, as well as a SARSAT search-and-rescue package. It had an on-orbit mass of 1475 kg.

NOAA 17 DEB was lifted into orbit during the mission ‘Titan II SLV | NOAA 17’, on board a Titan II SLV space rocket.

The launch took place on June 24, 2002, 6:23 p.m. from Space Launch Complex 4W.

For more information about the launch, click the button.

Launch to space Titan II SLV | NOAA 17
Titan II SLV | NOAA 17

Agency: N/A

Status: Launch Successful

Launch date: June 24, 2002, 6:23 p.m. UTC

Rocket: Titan II SLV

Launch pad: Space Launch Complex 4W

Location: Vandenberg SFB, CA, USA

...

Latest news about this satellite

There are no fresh news available about this satellite. Check back as we update our databases every day.


Newsletter sign-up

Weekly statistics, charts and insights to help you stay on top of the space industry.